Tracking 30995 objects as of 5-Jul-2025
HD Live streaming from Space Station
objects crossing your sky now

STARLINK-2611

Track STARLINK-2611 now!
10-day predictions
STARLINK-2611 is classified as:


NORAD ID: 48364
Int'l Code: 2021-038M
Perigee: 553.4 km
Apogee: 555.4 km
Inclination: 53.1 °
Period: 95.6 minutes
Semi major axis: 6925 km
RCS: Unknown
Launch date: May 4, 2021
Source: United States (US)
Launch site: AIR FORCE EASTERN TEST RANGE (AFETR)
Your satellite tracking list
Your tracking list is empty




NASA's NSSDC Master Catalog

Two Line Element Set (TLE):
1 48364U 21038M   25185.82094727 -.00002630  00000-0 -15774-3 0  9999
2 48364  53.0560  29.5127 0001461  89.6884 270.4273 15.06393531229731
Source of the keplerian elements: AFSPC